This demonstration page uses our WeatherBlox Daily Observations layout. Learn more.

Left ArrowRight Arrow

38.88101, -77.10428

Hourly Observations for March 31, 2017

Temp ( °F °C ) Dew Point ( °F °C ) Humidity (%) Winds ( mph kmh ) Pressure ( in mb ) Visibility ( mi km ) Precip ( " mm )
12:52 am 00:52 Cloudy 49 9.4 39 3.9 69 69 SSE 10 17 30.04 1017 10 16 0.00 0.00
1:52 am 01:52 Cloudy 49 9.4 39 3.9 69 69 SSE 9 15 30.01 1016 10 16 0.00 0.00
2:47 am 02:47 Cloudy 48 9 43 6 82 82 E 7 11 30.00 1016 10 16 0.00 0.03
2:52 am 02:52 Cloudy 48 8.9 42 5.6 80 80 ESE 7 11 30.00 1016 10 16 0.00 0.03
3:52 am 03:52 Cloudy 48 8.9 42 5.6 80 80 E 10 17 29.98 1015 10 16 0.00 0.03
4:26 am 04:26 Cloudy with Light Rain 46 8 43 6 87 87 E 8 13 29.97 1015 4 6 0.00 0.00
4:52 am 04:52 Cloudy 46 7.8 44 6.7 93 93 ENE 8 13 29.96 1015 10 16 0.00 0.03
4:59 am 04:59 Cloudy 46 7.8 44 6.7 93 93 E 7 11 29.97 1015 10 16 0.00 0.00
5:20 am 05:20 Cloudy with Light Rain 46 8 43 6 87 87 ENE 10 17 29.94 1014 5 8 0.00 0.00
5:37 am 05:37 Cloudy 46 7.8 44 6.7 93 93 ENE 8 13 29.94 1014 10 16 0.00 0.03
5:52 am 05:52 Cloudy with Light Rain 45 7.2 43 6.1 93 93 ENE 9 15 29.94 1014 10 16 0.00 0.03
6:27 am 06:27 Cloudy with Light Rain 45 7.2 43 6.1 93 93 ENE 10 17 29.94 1014 9 14 0.00 0.03
6:52 am 06:52 Cloudy with Light Rain 45 7.2 43 6.1 93 93 NE 12 19 29.92 1013 6 10 0.01 0.25
7:30 am 07:30 Cloudy with Rain 45 7 45 7 100 100 NE 12 19 29.91 1013 4 6 0.00 0.00
7:52 am 07:52 Cloudy with Rain 45 7.2 44 6.7 97 97 NE 13 20 29.89 1012 3 5 0.12 3.05
8:52 am 08:52 Cloudy with Light Rain 46 7.8 45 7.2 96 96 NE 13 20 29.84 1010 7 11 0.04 1.02
9:28 am 09:28 Cloudy with Heavy Rain 46 8 46 8 100 100 NNE 9 15 29.83 1010 3 4 0.00 0.00
9:38 am 09:38 Cloudy with Heavy Rain 46 8 46 8 100 100 NE 10 17 29.83 1010 2 2 0.00 0.00
9:43 am 09:43 Cloudy with Rain 47 8.3 45 7.2 93 93 NNE 12 19 29.80 1009 3 4 0.15 3.81
9:52 am 09:52 Cloudy with Heavy Rain 47 8.3 46 7.8 97 97 N 9 15 29.81 1010 2 3 0.19 4.83
10:04 am 10:04 Cloudy with Rain 46 8 45 7 93 93 N 12 19 29.83 1010 3 5 0.00 0.00
10:19 am 10:19 Cloudy with Rain 47 8.3 46 7.8 97 97 N 12 19 29.80 1009 3 5 0.10 2.54
10:37 am 10:37 Cloudy with Heavy Rain 47 8.3 46 7.8 97 97 N 12 19 29.80 1009 2 3 0.16 4.06
10:52 am 10:52 Cloudy with Heavy Rain 47 8.3 46 7.8 97 97 N 12 19 29.80 1009 2 3 0.24 6.10
10:55 am 10:55 Cloudy with Heavy Rain 47 8.3 46 7.8 97 97 N 13 20 29.80 1009 2 3 0.02 0.51
11:16 am 11:16 Cloudy with Light Rain 46 8 46 8 100 100 NNE 14 22 29.77 1008 4 6 0.00 0.00
11:52 am 11:52 Cloudy with Light Rain 47 8.3 46 7.8 97 97 NNE 10 17 29.76 1008 7 11 0.14 3.56
12:07 pm 12:07 Cloudy with Rain 47 8.3 46 7.8 97 97 NNE 12 19 29.74 1007 4 6 0.04 1.02
12:52 pm 12:52 Cloudy with Rain 48 8.9 47 8.3 96 96 N 12 19 29.72 1006 4 6 0.14 3.56
1:52 pm 13:52 Cloudy with Light Rain 49 9.4 48 8.9 97 97 N 9 15 29.67 1005 7 11 0.02 0.51
2:52 pm 14:52 Cloudy 51 10.6 49 9.4 92 92 NE 5 7 29.65 1004 7 11 0.00 0.03
3:32 pm 15:32 Cloudy with Light Rain 50 10 48 9 94 94 NW 12 19 29.65 1004 3 4 0.00 0.00
3:45 pm 15:45 Cloudy with Light Rain 50 10 49 9.4 96 96 WNW 8 13 29.65 1004 2 3 0.00 0.03
3:52 pm 15:52 Cloudy with Mist and Fog 50 10 49 9.4 96 96 N 6 9 29.65 1004 2 3 0.00 0.03
3:54 pm 15:54 Cloudy with Mist and Fog 52 11 50 10 94 94 NNW 6 9 29.65 1004 3 5 0.00 0.00
4:20 pm 16:20 Cloudy 52 11 50 10 94 94 NNW 10 17 29.65 1004 7 11 0.00 0.00
4:23 pm 16:23 Cloudy 52 11.1 50 10 93 93 NNW 9 15 29.65 1004 7 11 0.01 0.25
4:52 pm 16:52 Cloudy 52 11.1 50 10 93 93 NNW 8 13 29.63 1004 10 16 0.01 0.25
5:52 pm 17:52 Cloudy 52 11.1 50 10 93 93 WNW 12 19 29.64 1004 10 16 0.00 0.00
6:04 pm 18:04 Cloudy 52 11 48 9 88 88 NW 9 15 29.65 1004 10 16 0.00 0.00
6:52 pm 18:52 Cloudy 50 10 47 8.3 89 89 NNW 7 11 29.64 1004 10 16 0.00 0.00
6:58 pm 18:58 Cloudy 50 10 48 9 94 94 NW 7 11 29.65 1004 10 16 0.00 0.00
7:12 pm 19:12 Cloudy with Rain 48 9 46 8 94 94 NW 9 15 29.65 1004 3 5 0.00 0.00
7:50 pm 19:50 Cloudy with Light Rain 48 9 46 8 94 94 WNW 7 11 29.68 1005 6 10 0.00 0.00
7:52 pm 19:52 Cloudy with Light Rain 49 9.4 47 8.3 93 93 NW 7 11 29.67 1005 6 10 0.05 1.27
8:00 pm 20:00 Cloudy with Light Rain 48 9 46 8 94 94 NW 8 13 29.68 1005 6 10 0.00 0.00
8:40 pm 20:40 Cloudy with Light Rain 48 9 46 8 94 94 NNW 14 22 29.68 1005 10 16 0.00 0.00
8:52 pm 20:52 Cloudy with Light Rain 48 8.9 46 7.8 93 93 NNW 13 20 29.68 1005 10 16 0.00 0.03
9:22 pm 21:22 Cloudy 48 9 46 8 94 94 NNW 8 13 29.68 1005 10 16 0.00 0.00
9:52 pm 21:52 Cloudy 48 8.9 46 7.8 93 93 N 7 11 29.67 1005 10 16 0.00 0.03
10:29 pm 22:29 Mostly Cloudy 48 8.9 46 7.8 93 93 NNW 7 11 29.68 1005 10 16 0.00 0.00
10:52 pm 22:52 Mostly Cloudy 48 8.9 46 7.8 93 93 NNW 10 17 29.67 1005 10 16 0.00 0.00
11:52 pm 23:52 Mostly Cloudy 47 8.3 45 7.2 93 93 NNW 8 13 29.67 1005 10 16 0.00 0.00

Powered by AerisWeather